GW5110 Weather Reports


time (UTC)temp
C
wind
direction
speed
KPH
gust
KPH
rain 1hr
cm
rain 24hr
cm
rain mn
cm
humidity
%
barometer
mb
20260906112332 19 114 0.0 0.0 0.00 0.58 0.58 99 1019.6
20260906111826 18 1 0.0 0.0 0.00 0.58 0.58 99 1019.5
20260906111325 18 2 0.0 0.0 0.00 0.58 0.58 99 1019.6
20260906110821 18 75 0.0 0.0 0.00 0.58 0.58 99 1019.4
20260906110316 18 311 0.0 0.0 0.00 0.58 0.58 99 1019.3
20260906105815 18 302 0.0 0.0 0.00 0.58 0.58 99 1019.1
20260906105311 18 8 0.0 0.0 0.13 0.58 0.58 99 1019.1
20260906104807 18 41 0.0 0.0 0.13 0.58 0.58 99 1019.0
20260906104305 18 42 0.0 0.0 0.00 0.56 0.56 99 1019.0
20260906103804 18 35 0.0 0.0 0.48 0.56 0.56 99 1019.0
20260906103303 18 260 0.0 0.0 1.68 0.56 0.56 99 1019.1
20260906102759 18 269 0.0 0.0 2.46 0.46 0.46 99 1019.0
20260906102257 18 243 0.0 0.0 1.37 0.25 0.25 99 1018.9
20260906101753 18 240 0.0 0.0 0.30 0.05 0.05 99 1019.0
20260906101248 18 246 1.6 1.6 0.00 0.00 0.00 99 1018.9
20260906100743 18 208 0.0 0.0 0.00 0.00 0.00 99 1018.7
20260906100242 18 208 0.0 0.0 0.00 0.00 0.00 99 1018.8
20260906095738 18 208 0.0 0.0 0.00 0.00 0.00 99 1018.7
20260906095233 18 208 0.0 0.0 0.00 0.00 0.00 99 1019.0
20260906094732 18 209 0.0 0.0 0.00 0.00 0.00 99 1018.7
20260906094227 18 210 0.0 0.0 0.00 0.00 0.00 99 1018.8
20260906093724 18 210 0.0 0.0 0.00 0.00 0.00 99 1018.6
20260906093219 18 257 1.6 1.6 0.00 0.00 0.00 99 1018.7
20260906092715 18 254 0.0 0.0 0.00 0.00 0.00 99 1018.6
20260906092214 18 265 0.0 0.0 0.00 0.00 0.00 99 1018.7
20260906091711 18 256 0.0 1.6 0.00 0.00 0.00 99 1018.5
20260906091207 18 256 0.0 1.6 0.00 0.00 0.00 99 1018.5
20260906090703 18 228 0.0 0.0 0.00 0.00 0.00 99 1018.6
20260906090202 18 229 0.0 0.0 0.00 0.00 0.00 99 1018.3
20260906085701 17 227 0.0 0.0 0.00 0.00 0.00 99 1018.3
20260906085200 17 220 0.0 0.0 0.00 0.00 0.00 99 1018.5
20260906084655 17 220 0.0 0.0 0.00 0.00 0.00 99 1018.5
20260906084154 17 221 0.0 0.0 0.00 0.00 0.00 99 1018.5
20260906083649 17 221 0.0 0.0 0.00 0.00 0.00 99 1018.5
20260906083145 17 221 0.0 0.0 0.00 0.00 0.00 99 1018.6
20260906082640 17 221 0.0 0.0 0.00 0.00 0.00 99 1018.6
20260906082135 17 216 0.0 0.0 0.00 0.00 0.00 99 1018.5
20260906081626 17 204 0.0 0.0 0.00 0.00 0.00 99 1018.7
20260906081121 17 241 0.0 0.0 0.00 0.00 0.00 99 1018.5
20260906080617 17 254 0.0 3.2 0.00 0.00 0.00 99 1018.6
20260906080113 17 214 0.0 1.6 0.00 0.00 0.00 99 1018.5
20260906075607 17 247 0.0 1.6 0.00 0.00 0.00 99 1018.5
20260906075102 17 248 0.0 0.0 0.00 0.00 0.00 99 1018.3
20260906074557 17 210 0.0 0.0 0.00 0.00 0.00 99 1018.5
20260906074055 17 210 0.0 0.0 0.00 0.00 0.00 99 1018.7
20260906073550 17 199 0.0 0.0 0.00 0.00 0.00 99 1018.7
20260906073046 17 199 0.0 0.0 0.00 0.00 0.00 99 1018.7
20260906072541 17 199 0.0 0.0 0.00 0.00 0.00 99 1018.6
20260906072037 17 199 0.0 0.0 0.00 0.00 0.00 99 1018.7
20260906071533 17 197 0.0 0.0 0.00 0.00 0.00 99 1018.7
20260906071028 17 245 0.0 0.0 0.00 0.00 0.00 99 1018.7
20260906070524 17 245 0.0 1.6 0.00 0.00 0.00 99 1018.7
20260906070020 17 257 1.6 1.6 0.00 0.00 0.00 99 1018.7
20260906065519 17 245 0.0 0.0 0.00 0.00 0.00 99 1018.5
20260906065015 17 238 0.0 0.0 0.00 0.00 0.00 99 1018.5
20260906064511 17 237 0.0 0.0 0.00 0.00 0.00 99 1018.7
20260906064011 17 237 0.0 0.0 0.00 0.00 0.00 99 1018.5
20260906063506 17 238 0.0 0.0 0.00 0.00 0.00 99 1018.8
20260906063001 17 238 0.0 0.0 0.00 0.00 0.00 99 1018.8
20260906062456 17 239 0.0 0.0 0.00 0.00 0.00 99 1018.8
20260906061951 17 239 0.0 0.0 0.00 0.00 0.00 99 1018.8
20260906061447 17 244 0.0 1.6 0.00 0.00 0.00 99 1019.3
20260906060941 17 242 0.0 0.0 0.00 0.00 0.00 99 1019.4
20260906060438 17 227 0.0 0.0 0.00 0.00 0.00 99 1019.4
20260906055934 17 230 0.0 0.0 0.00 0.00 0.00 99 1019.3
20260906055430 17 230 0.0 0.0 0.00 0.00 0.00 98 1019.4
20260906054925 17 230 0.0 0.0 0.00 0.00 0.00 98 1019.4
20260906054420 17 228 0.0 0.0 0.00 0.00 0.00 98 1019.3
20260906053916 17 223 0.0 0.0 0.00 0.00 0.00 98 1019.3
20260906053412 17 224 0.0 0.0 0.00 0.00 0.00 98 1019.4
20260906052907 17 266 0.0 0.0 0.00 0.00 0.00 98 1019.3
20260906052403 17 203 0.0 0.0 0.00 0.00 0.00 98 1019.1
20260906051900 18 223 0.0 0.0 0.00 0.00 0.00 98 1019.3
20260906051400 18 186 0.0 0.0 0.00 0.00 0.00 98 1019.3
20260906050856 18 194 0.0 0.0 0.00 0.00 0.00 98 1019.4
20260906050350 18 193 0.0 0.0 0.00 0.00 0.00 98 1019.4
20260906045849 18 192 0.0 0.0 0.00 0.00 0.00 98 1019.5
20260906045343 18 251 0.0 3.2 0.00 0.00 0.00 98 1019.4
20260906044840 18 248 1.6 1.6 0.00 0.00 0.00 98 1019.4
20260906044334 18 162 0.0 0.0 0.00 0.00 0.00 98 1019.3
20260906043830 18 162 0.0 0.0 0.00 0.00 0.00 97 1019.3
20260906043326 18 166 0.0 0.0 0.00 0.00 0.00 97 1019.1
20260906042826 18 220 0.0 0.0 0.00 0.00 0.00 97 1018.9
20260906042325 18 251 0.0 0.0 0.00 0.00 0.00 97 1018.9
20260906041821 18 258 0.0 0.0 0.00 0.00 0.00 97 1019.1
20260906041316 18 253 0.0 0.0 0.00 0.00 0.00 97 1019.1
20260906040811 18 240 0.0 0.0 0.00 0.00 0.00 97 1019.1
20260906040306 18 256 0.0 1.6 0.00 0.00 0.00 97 1019.0
20260906035801 18 256 0.0 1.6 0.00 0.00 0.00 97 1019.3
20260906035257 18 258 0.0 1.6 0.00 0.00 0.00 97 1019.3
20260906034757 18 244 0.0 1.6 0.00 0.00 0.00 96 1019.3
20260906034252 18 252 1.6 1.6 0.00 0.00 0.00 96 1019.3
20260906033748 18 242 0.0 0.0 0.00 0.00 0.00 96 1019.6
20260906033247 18 222 0.0 0.0 0.00 0.00 0.00 96 1019.4
20260906032744 19 234 0.0 0.0 0.00 0.00 0.00 96 1019.6
20260906032243 19 207 0.0 0.0 0.00 0.00 0.00 96 1019.7
20260906031739 19 235 0.0 0.0 0.00 0.00 0.00 96 1019.7
20260906031235 19 209 0.0 0.0 0.00 0.00 0.00 95 1019.8
20260906030734 19 228 0.0 0.0 0.00 0.00 0.00 95 1019.7
20260906030229 19 230 0.0 0.0 0.00 0.00 0.00 95 1019.7
20260906025729 19 175 0.0 0.0 0.00 0.00 0.00 95 1019.9
20260906025223 20 172 0.0 0.0 0.00 0.00 0.00 95 1019.9
20260906024722 20 253 1.6 1.6 0.00 0.00 0.00 94 1020.1
20260906024222 20 226 0.0 0.0 0.00 0.00 0.00 94 1019.9
20260906023713 20 244 0.0 0.0 0.00 0.00 0.00 94 1020.0
20260906023212 20 199 0.0 0.0 0.00 0.00 0.00 94 1019.7
20260906022708 20 203 0.0 0.0 0.00 0.00 0.00 93 1019.9
20260906022203 20 260 0.0 1.6 0.00 0.00 0.00 93 1019.9
20260906021700 20 241 0.0 1.6 0.00 0.00 0.00 93 1020.0
20260906021158 20 244 0.0 1.6 0.00 0.00 0.00 92 1019.8
20260906020653 20 180 0.0 0.0 0.00 0.00 0.00 92 1019.8
20260906020148 20 253 0.0 1.6 0.00 0.00 0.00 92 1019.7
20260906015647 20 233 0.0 0.0 0.00 0.00 0.00 91 1019.6
20260906015141 21 216 0.0 0.0 0.00 0.00 0.00 91 1019.6
20260906014640 21 246 0.0 0.0 0.00 0.00 0.00 91 1019.7
20260906014136 21 174 0.0 0.0 0.00 0.00 0.00 90 1019.7
20260906013632 21 218 0.0 0.0 0.00 0.00 0.00 90 1019.6
20260906013128 21 258 0.0 1.6 0.00 0.00 0.00 90 1019.7
20260906012627 21 276 0.0 1.6 0.00 0.00 0.00 90 1019.6
20260906012122 21 248 0.0 0.0 0.00 0.00 0.00 89 1019.4
20260906011618 21 278 0.0 0.0 0.00 0.00 0.00 89 1019.4
20260906011113 21 258 0.0 0.0 0.00 0.00 0.00 89 1019.3
20260906010608 21 168 0.0 0.0 0.00 0.00 0.00 89 1019.1
20260906010104 21 175 0.0 0.0 0.00 0.00 0.00 88 1019.1
20260906005603 21 186 0.0 0.0 0.00 0.00 0.00 88 1019.3
20260906005102 21 251 0.0 0.0 0.00 0.00 0.00 87 1019.1
20260906004601 21 244 0.0 0.0 0.00 0.00 0.00 87 1018.9
20260906004057 22 253 1.6 3.2 0.00 0.00 0.00 86 1019.0
20260906003551 22 201 0.0 0.0 0.00 0.00 0.00 86 1018.8
20260906003048 22 253 1.6 1.6 0.00 0.00 0.00 85 1019.1
20260906002542 22 162 0.0 0.0 0.00 0.00 0.00 85 1018.8
20260906002037 22 262 0.0 1.6 0.00 0.00 0.00 84 1018.9
20260906001532 22 207 0.0 0.0 0.00 0.00 0.00 83 1019.0
20260906001027 22 80 0.0 0.0 0.00 0.00 0.00 82 1019.0
20260906000523 23 163 0.0 0.0 0.00 0.00 0.00 81 1018.8
20260906000018 23 118 0.0 0.0 0.00 0.00 0.00 81 1018.6
20260905235512 23 165 0.0 0.0 0.00 0.00 0.00 80 1018.8
20260905235007 23 148 0.0 0.0 0.00 0.00 0.00 79 1018.7
20260905234503 24 166 0.0 0.0 0.00 0.00 0.00 78 1018.6
20260905234002 24 226 0.0 0.0 0.00 0.00 0.00 77 1018.6
20260905233457 24 255 0.0 3.2 0.00 0.00 0.00 76 1018.7
20260905232955 25 257 1.6 4.8 0.00 0.00 0.00 75 1018.6
20260905232452 25 89 6.4 6.4 0.00 0.00 0.00 75 1018.6
20260905231948 25 158 0.0 0.0 0.00 0.00 0.00 74 1018.8
20260905231443 25 333 0.0 0.0 0.00 0.00 0.00 74 1018.8
20260905230940 25 298 0.0 1.6 0.00 0.00 0.00 73 1018.7
20260905230438 25 218 0.0 0.0 0.00 0.00 0.00 73 1018.8
20260905225937 26 163 0.0 3.2 0.00 0.00 0.00 73 1018.8
20260905225433 26 158 0.0 0.0 0.00 0.00 0.00 71 1018.9
20260905224927 26 229 0.0 1.6 0.00 0.00 0.00 71 1018.7
20260905224423 26 244 1.6 3.2 0.00 0.00 0.00 69 1018.7
20260905223922 26 294 3.2 11.3 0.00 0.00 0.00 68 1019.0
20260905223420 27 239 3.2 9.7 0.00 0.00 0.00 67 1018.7
20260905222915 27 214 6.4 9.7 0.00 0.00 0.00 66 1018.8
20260905222414 27 198 4.8 4.8 0.00 0.00 0.00 66 1018.6
20260905221910 27 257 3.2 6.4 0.00 0.00 0.00 65 1018.7
20260905221407 27 144 1.6 11.3 0.00 0.00 0.00 65 1018.6
20260905220903 27 222 4.8 6.4 0.00 0.00 0.00 66 1018.5
20260905220359 27 222 8.0 11.3 0.00 0.00 0.00 67 1018.4
20260905215857 27 153 1.6 9.7 0.00 0.00 0.00 66 1018.2
20260905215353 27 226 3.2 9.7 0.00 0.00 0.00 67 1018.1
20260905214850 27 237 4.8 6.4 0.00 0.00 0.00 66 1018.3
20260905214345 27 245 3.2 9.7 0.00 0.00 0.00 64 1018.1
20260905213839 28 236 1.6 6.4 0.00 0.00 0.00 64 1018.3
20260905213336 28 246 3.2 9.7 0.00 0.00 0.00 63 1018.2
20260905212835 28 161 4.8 11.3 0.00 0.00 0.00 63 1018.3
20260905212330 28 246 4.8 9.7 0.00 0.00 0.00 62 1018.1
20260905211824 28 274 3.2 12.9 0.00 0.00 0.00 61 1018.2
20260905211320 28 251 1.6 14.5 0.00 0.00 0.00 61 1018.2
20260905210816 28 237 1.6 4.8 0.00 0.00 0.00 62 1018.0
20260905210315 28 235 1.6 6.4 0.00 0.00 0.00 61 1018.1
20260905205814 28 227 6.4 11.3 0.00 0.00 0.00 60 1018.0
20260905205309 28 253 12.9 12.9 0.00 0.00 0.00 60 1018.2
20260905204808 28 243 4.8 11.3 0.00 0.00 0.00 61 1018.2
20260905204305 28 280 6.4 9.7 0.00 0.00 0.00 62 1017.1
20260905203804 28 38 3.2 4.8 0.00 0.00 0.00 62 1017.7
20260905203300 28 279 6.4 9.7 0.00 0.00 0.00 62 1018.0
20260905202755 28 232 9.7 14.5 0.00 0.00 0.00 60 1018.0
20260905202250 28 262 0.0 6.4 0.00 0.00 0.00 60 1018.0
20260905201746 28 244 3.2 9.7 0.00 0.00 0.00 61 1017.7
20260905201241 28 228 6.4 9.7 0.00 0.00 0.00 59 1017.9
20260905200736 28 224 1.6 11.3 0.00 0.00 0.00 59 1018.1
20260905200232 28 101 0.0 14.5 0.00 0.00 0.00 59 1018.0
20260905195729 28 226 8.0 14.5 0.00 0.00 0.00 60 1018.2
20260905195224 28 219 3.2 4.8 0.00 0.00 0.00 63 1018.1
20260905194720 28 257 6.4 11.3 0.00 0.00 0.00 61 1018.2
20260905194219 28 239 6.4 12.9 0.00 0.00 0.00 58 1018.3
20260905193719 28 243 4.8 9.7 0.00 0.00 0.00 59 1018.3
20260905193214 28 196 6.4 6.4 0.00 0.00 0.00 60 1018.3
20260905192709 28 267 4.8 12.9 0.00 0.00 0.00 58 1018.4
20260905192206 28 256 11.3 14.5 0.00 0.00 0.00 56 1018.6
20260905191705 29 266 6.4 11.3 0.00 0.00 0.00 58 1018.5
20260905191203 29 233 6.4 16.1 0.00 0.00 0.00 56 1018.4
20260905190702 28 354 1.6 3.2 0.00 0.00 0.00 59 1018.3
20260905190201 28 279 6.4 14.5 0.00 0.00 0.00 60 1018.6
20260905185700 28 240 8.0 16.1 0.00 0.00 0.00 59 1018.7
20260905185156 28 255 4.8 9.7 0.00 0.00 0.00 63 1018.7
20260905184655 28 210 11.3 12.9 0.00 0.00 0.00 66 1018.8
20260905184154 28 246 1.6 3.2 0.00 0.00 0.00 68 1018.8
20260905183653 28 261 4.8 9.7 0.00 0.00 0.00 71 1019.0
20260905183148 27 265 4.8 6.4 0.00 0.00 0.00 70 1018.9
20260905182648 27 248 3.2 6.4 0.00 0.00 0.00 72 1019.1
20260905182142 27 244 4.8 11.3 0.00 0.00 0.00 71 1019.1
20260905181637 27 252 3.2 6.4 0.00 0.00 0.00 70 1019.5
20260905181136 27 269 1.6 11.3 0.00 0.00 0.00 69 1019.5
20260905180631 27 262 3.2 6.4 0.00 0.00 0.00 68 1019.4
20260905180127 27 124 1.6 11.3 0.00 0.00 0.00 68 1019.7
20260905175626 27 36 1.6 1.6 0.00 0.00 0.00 71 1019.3
20260905175122 27 220 1.6 3.2 0.00 0.00 0.00 74 1019.6
20260905174617 26 236 1.6 6.4 0.00 0.00 0.00 72 1019.5
20260905174112 26 74 1.6 3.2 0.00 0.00 0.00 75 1019.4
20260905173608 26 285 4.8 4.8 0.00 0.00 0.00 74 1019.5
20260905173103 26 267 3.2 12.9 0.00 0.00 0.00 73 1019.6
20260905172602 26 314 4.8 4.8 0.00 0.00 0.00 75 1019.4
20260905172057 26 263 6.4 6.4 0.00 0.00 0.00 77 1019.5
20260905171554 25 112 0.0 3.2 0.00 0.00 0.00 81 1019.4
20260905171050 25 267 4.8 6.4 0.00 0.00 0.00 82 1019.7
20260905170546 24 262 3.2 4.8 0.00 0.00 0.00 83 1019.7
20260905170041 24 251 3.2 6.4 0.00 0.00 0.00 83 1019.7
20260905165536 24 258 3.2 4.8 0.00 0.00 0.00 84 1020.0
20260905165032 23 278 3.2 6.4 0.00 0.00 0.00 85 1020.0
20260905164526 23 280 4.8 9.7 0.00 0.00 0.00 85 1020.8
20260905164021 23 274 1.6 4.8 0.00 0.00 0.00 86 1020.9
20260905163517 23 259 4.8 4.8 0.00 0.00 0.00 86 1020.9
20260905163013 23 300 1.6 9.7 0.00 0.00 0.00 86 1020.8
20260905162509 23 86 0.0 1.6 0.00 0.00 0.00 87 1021.2
20260905162003 23 281 0.0 3.2 0.00 0.00 0.00 87 1021.3
20260905161502 23 268 1.6 1.6 0.00 0.00 0.00 87 1021.6
20260905161000 23 270 0.0 1.6 0.00 0.00 0.00 87 1021.5
20260905160454 23 252 0.0 0.0 0.00 0.00 0.00 87 1021.7
20260905155953 23 256 0.0 1.6 0.00 0.00 0.00 86 1021.6
20260905155448 23 241 0.0 0.0 0.00 0.00 0.00 86 1021.7
20260905154947 23 204 0.0 1.6 0.00 0.00 0.00 85 1021.9
20260905154442 23 207 0.0 0.0 0.00 0.00 0.00 84 1021.6
20260905153938 24 142 0.0 0.0 0.00 0.00 0.00 84 1021.7
20260905153434 24 248 0.0 1.6 0.00 0.00 0.00 83 1021.9
20260905152933 24 97 0.0 6.4 0.00 0.00 0.00 83 1021.8
20260905152433 24 242 4.8 4.8 0.00 0.00 0.00 83 1021.9
20260905151928 24 303 0.0 1.6 0.00 0.00 0.00 84 1021.8
20260905151424 24 133 3.2 4.8 0.00 0.00 0.00 84 1021.9
20260905150924 23 261 3.2 6.4 0.00 0.00 0.00 85 1022.2
20260905150424 23 84 6.4 6.4 0.00 0.00 0.00 87 1022.0
20260905145920 22 52 3.2 4.8 0.00 0.00 0.00 87 1022.2
20260905145416 22 179 6.4 11.3 0.00 0.00 0.00 87 1021.8
20260905144915 23 114 9.7 20.9 0.00 0.00 0.00 86 1021.8
20260905144411 24 90 14.5 20.9 0.00 0.00 0.00 84 1021.5
20260905143909 25 212 6.4 11.3 0.00 0.00 0.00 83 1021.8
20260905143404 25 278 4.8 4.8 0.00 0.00 0.00 83 1021.1
20260905142903 25 214 8.0 11.3 0.00 0.00 0.00 83 1020.9
20260905142401 25 259 6.4 6.4 0.00 0.00 0.00 83 1020.9
20260905141858 25 248 1.6 6.4 0.00 0.00 0.00 83 1020.8
20260905141353 25 240 3.2 6.4 0.00 0.00 0.00 83 1020.6
20260905140849 25 226 1.6 3.2 0.00 0.00 0.00 83 1020.6
20260905140349 25 272 4.8 6.4 0.00 0.00 0.00 83 1020.5
20260905135847 25 215 6.4 6.4 0.00 0.00 0.00 82 1020.8
20260905135344 25 149 0.0 3.2 0.00 0.00 0.00 82 1020.8
20260905134839 26 252 1.6 6.4 0.00 0.00 0.00 81 1020.5
20260905134337 26 259 4.8 6.4 0.00 0.00 0.00 81 1020.6
20260905133832 26 247 3.2 4.8 0.00 0.00 0.00 81 1020.6
20260905133328 26 303 0.0 4.8 0.00 0.00 0.00 81 1020.9
20260905132826 26 267 0.0 0.0 0.00 0.00 0.00 81 1020.9
20260905132323 26 258 0.0 1.6 0.00 0.00 0.00 81 1020.6
20260905131822 26 335 1.6 1.6 0.00 0.00 0.00 81 1020.6
20260905131318 26 334 0.0 3.2 0.00 0.00 0.00 81 1020.8
20260905130813 26 246 1.6 3.2 0.00 0.00 0.00 81 1020.9
20260905130312 26 275 1.6 3.2 0.00 0.00 0.00 82 1020.8
20260905125808 25 273 1.6 3.2 0.00 0.00 0.00 82 1020.9
20260905125305 25 253 0.0 3.2 0.00 0.00 0.00 83 1020.9
20260905124758 25 270 0.0 1.6 0.00 0.00 0.00 84 1021.2
20260905124254 25 271 0.0 3.2 0.00 0.00 0.00 85 1021.0
20260905123749 24 257 0.0 1.6 0.00 0.00 0.00 88 1021.1
20260905123247 23 226 0.0 1.6 0.00 0.00 0.00 90 1020.9
20260905122746 23 242 0.0 1.6 0.00 0.00 0.00 92 1020.6
20260905122245 22 270 0.0 0.0 0.00 0.00 0.00 94 1020.9
20260905121741 22 240 1.6 3.2 0.00 0.00 0.00 96 1020.8
20260905121237 21 257 1.6 3.2 0.00 0.00 0.00 97 1020.5
20260905120736 21 169 1.6 1.6 0.00 0.00 0.00 98 1020.8
20260905120230 21 255 3.2 6.4 0.00 0.00 0.00 99 1020.6
20260905115725 20 254 1.6 4.8 0.00 0.00 0.00 99 1020.8
20260905115219 20 255 1.6 3.2 0.00 0.00 0.00 99 1020.5
20260905114715 20 218 1.6 3.2 0.00 0.00 0.00 99 1020.8
20260905114213 20 274 3.2 4.8 0.00 0.00 0.00 99 1020.5
20260905113712 20 263 3.2 4.8 0.00 0.00 0.00 99 1020.5
20260905113208 19 248 1.6 3.2 0.00 0.00 0.00 99 1020.5